• Em Portugal
  • Lista de países
  • Para 7 dias
  • Temperatura da água
  • Mapas de satélite
  • Mapa do tempo
  • Widgets de tempo
  • user-avatar
    Iniciar Sessão

    Previsão horária em Rangpur

    Hoje, 23 Janeiro, Terça-feira

    Tempo Temperatura Precipitação Vento Pressão Humidade
    00:00 +21°C° 0 mm 2 m/s 756 mmHg 56%
    01:00 +20°C° 0 mm 2 m/s 755 mmHg 57%
    02:00 +20°C° 0 mm 2 m/s 755 mmHg 57%
    03:00 +19°C° 0 mm 2 m/s 755 mmHg 58%
    04:00 +19°C° 0 mm 2 m/s 755 mmHg 59%
    05:00 +18°C° 0 mm 2 m/s 755 mmHg 60%
    06:00 +18°C° 0 mm 1 m/s 755 mmHg 56%
    07:00 +20°C° 0 mm 1 m/s 755 mmHg 53%
    08:00 +21°C° 0 mm 1 m/s 756 mmHg 50%
    09:00 +22°C° 0 mm 1 m/s 756 mmHg 47%
    10:00 +24°C° 0 mm 1 m/s 756 mmHg 45%
    11:00 +25°C° 0 mm 2 m/s 756 mmHg 42%
    12:00 +27°C° 0 mm 2 m/s 755 mmHg 39%
    13:00 +28°C° 0 mm 2 m/s 755 mmHg 37%
    14:00 +28°C° 0 mm 2 m/s 754 mmHg 35%
    15:00 +29°C° 0 mm 2 m/s 754 mmHg 34%
    16:00 +27°C° 0 mm 2 m/s 754 mmHg 35%
    17:00 +26°C° 0 mm 2 m/s 754 mmHg 36%
    18:00 +25°C° 0 mm 2 m/s 754 mmHg 38%
    19:00 +24°C° 0 mm 2 m/s 754 mmHg 38%
    20:00 +24°C° 0 mm 2 m/s 754 mmHg 39%
    21:00 +23°C° 0 mm 2 m/s 755 mmHg 39%
    22:00 +21°C° 0 mm 2 m/s 755 mmHg 41%
    23:00 +22°C° 0 mm 1 m/s 755 mmHg 42%

    Amanhã, 24 Janeiro, Quarta-feira

    Tempo Temperatura Precipitação Vento Pressão Humidade
    00:00 +21°C° 0 mm 1 m/s 755 mmHg 43%
    01:00 +21°C° 0 mm 1 m/s 755 mmHg 45%
    02:00 +20°C° 0 mm 1 m/s 754 mmHg 47%
    03:00 +18°C° 0 mm 0 m/s 754 mmHg 48%
    04:00 +17°C° 0 mm 0 m/s 754 mmHg 50%
    05:00 +17°C° 0 mm 0 m/s 754 mmHg 52%
    06:00 +17°C° 0 mm 0 m/s 754 mmHg 54%
    07:00 +18°C° 0 mm 0 m/s 754 mmHg 50%
    08:00 +19°C° 0 mm 0 m/s 755 mmHg 47%
    09:00 +22°C° 0 mm 1 m/s 755 mmHg 43%
    10:00 +24°C° 0 mm 1 m/s 755 mmHg 39%
    11:00 +26°C° 0 mm 1 m/s 755 mmHg 34%
    12:00 +27°C° 0 mm 1 m/s 755 mmHg 29%
    13:00 +28°C° 0 mm 2 m/s 754 mmHg 27%
    14:00 +28°C° 0 mm 2 m/s 753 mmHg 25%
    15:00 +29°C° 0 mm 2 m/s 752 mmHg 23%
    16:00 +28°C° 0 mm 2 m/s 752 mmHg 25%
    17:00 +27°C° 0 mm 2 m/s 752 mmHg 27%
    18:00 +26°C° 0 mm 2 m/s 752 mmHg 29%
    19:00 +26°C° 0 mm 2 m/s 752 mmHg 30%
    20:00 +26°C° 0 mm 2 m/s 753 mmHg 31%
    21:00 +25°C° 0 mm 2 m/s 753 mmHg 32%
    22:00 +24°C° 0 mm 2 m/s 753 mmHg 34%
    23:00 +24°C° 0 mm 2 m/s 753 mmHg 36%

    Depois de amanhã, 25 Janeiro, Quinta-feira

    Tempo Temperatura Precipitação Vento Pressão Humidade
    00:00 +23°C° 0 mm 2 m/s 753 mmHg 38%
    01:00 +21°C° 0 mm 2 m/s 753 mmHg 42%
    02:00 +20°C° 0 mm 3 m/s 753 mmHg 46%
    03:00 +19°C° 0 mm 3 m/s 753 mmHg 49%
    04:00 +18°C° 0 mm 2 m/s 753 mmHg 51%
    05:00 +18°C° 0 mm 2 m/s 753 mmHg 54%
    06:00 +17°C° 0 mm 2 m/s 753 mmHg 56%
    07:00 +18°C° 0 mm 2 m/s 754 mmHg 53%
    08:00 +19°C° 0 mm 2 m/s 755 mmHg 50%
    09:00 +20°C° 0 mm 2 m/s 755 mmHg 47%
    10:00 +23°C° 0 mm 2 m/s 755 mmHg 42%
    11:00 +24°C° 0 mm 1 m/s 755 mmHg 38%
    12:00 +26°C° 0 mm 1 m/s 755 mmHg 33%
    13:00 +27°C° 0 mm 1 m/s 754 mmHg 32%
    14:00 +27°C° 0 mm 1 m/s 754 mmHg 30%
    15:00 +28°C° 0 mm 1 m/s 753 mmHg 29%
    16:00 +27°C° 0 mm 1 m/s 753 mmHg 31%
    17:00 +26°C° 0 mm 1 m/s 753 mmHg 32%
    18:00 +25°C° 0 mm 2 m/s 753 mmHg 34%
    19:00 +24°C° 0 mm 2 m/s 754 mmHg 36%
    20:00 +23°C° 0 mm 2 m/s 755 mmHg 38%
    21:00 +22°C° 0 mm 3 m/s 755 mmHg 40%
    22:00 +21°C° 0 mm 2 m/s 755 mmHg 43%
    23:00 +20°C° 0 mm 2 m/s 755 mmHg 46%

    26 Janeiro, Sexta-feira

    Tempo Temperatura Precipitação Vento Pressão Humidade
    00:00 +19°C° 0 mm 2 m/s 755 mmHg 49%
    01:00 +19°C° 0 mm 2 m/s 755 mmHg 50%
    02:00 +18°C° 0 mm 2 m/s 755 mmHg 52%
    03:00 +19°C° 0 mm 1 m/s 755 mmHg 53%
    04:00 +18°C° 0 mm 1 m/s 755 mmHg 54%
    05:00 +18°C° 0 mm 1 m/s 755 mmHg 55%
    06:00 +17°C° 0 mm 2 m/s 755 mmHg 56%
    07:00 +18°C° 0 mm 2 m/s 756 mmHg 53%
    08:00 +19°C° 0 mm 2 m/s 756 mmHg 50%
    09:00 +20°C° 0 mm 2 m/s 757 mmHg 47%
    10:00 +23°C° 0 mm 2 m/s 757 mmHg 43%
    11:00 +24°C° 0 mm 2 m/s 757 mmHg 39%
    12:00 +26°C° 0 mm 2 m/s 756 mmHg 35%
    13:00 +26°C° 0 mm 2 m/s 756 mmHg 33%
    14:00 +27°C° 0 mm 2 m/s 755 mmHg 30%
    15:00 +27°C° 0 mm 2 m/s 754 mmHg 28%
    16:00 +26°C° 0 mm 2 m/s 754 mmHg 30%
    17:00 +25°C° 0 mm 2 m/s 754 mmHg 32%
    18:00 +24°C° 0 mm 2 m/s 754 mmHg 34%
    19:00 +22°C° 0 mm 3 m/s 754 mmHg 36%
    20:00 +22°C° 0 mm 3 m/s 755 mmHg 39%
    21:00 +21°C° 0 mm 3 m/s 755 mmHg 42%
    22:00 +20°C° 0 mm 3 m/s 755 mmHg 44%
    23:00 +20°C° 0 mm 3 m/s 755 mmHg 47%

    27 Janeiro, Sábado

    Tempo Temperatura Precipitação Vento Pressão Humidade
    00:00 +19°C° 0 mm 3 m/s 755 mmHg 49%
    01:00 +18°C° 0 mm 3 m/s 755 mmHg 50%
    02:00 +18°C° 0 mm 2 m/s 755 mmHg 52%
    03:00 +17°C° 0 mm 2 m/s 755 mmHg 53%
    04:00 +17°C° 0 mm 2 m/s 755 mmHg 54%
    05:00 +16°C° 0 mm 1 m/s 755 mmHg 56%
    06:00 +16°C° 0 mm 1 m/s 755 mmHg 57%
    07:00 +18°C° 0 mm 1 m/s 756 mmHg 53%
    08:00 +19°C° 0 mm 1 m/s 756 mmHg 50%
    09:00 +20°C° 0 mm 1 m/s 757 mmHg 46%
    10:00 +22°C° 0 mm 1 m/s 757 mmHg 43%
    11:00 +23°C° 0 mm 1 m/s 756 mmHg 39%
    12:00 +25°C° 0 mm 1 m/s 756 mmHg 36%
    13:00 +25°C° 0 mm 2 m/s 755 mmHg 33%
    14:00 +26°C° 0 mm 2 m/s 754 mmHg 30%
    15:00 +27°C° 0 mm 3 m/s 754 mmHg 26%
    16:00 +25°C° 0 mm 3 m/s 754 mmHg 28%
    17:00 +24°C° 0 mm 3 m/s 754 mmHg 30%
    18:00 +22°C° 0 mm 3 m/s 754 mmHg 32%
    19:00 +21°C° 0 mm 3 m/s 754 mmHg 34%
    20:00 +21°C° 0 mm 3 m/s 755 mmHg 36%
    21:00 +20°C° 0 mm 2 m/s 756 mmHg 38%
    22:00 +19°C° 0 mm 2 m/s 756 mmHg 40%
    23:00 +18°C° 0 mm 2 m/s 756 mmHg 42%

    28 Janeiro, Domingo

    Tempo Temperatura Precipitação Vento Pressão Humidade
    00:00 +18°C° 0 mm 2 m/s 756 mmHg 44%
    01:00 +17°C° 0 mm 2 m/s 756 mmHg 46%
    02:00 +17°C° 0 mm 2 m/s 755 mmHg 47%
    03:00 +16°C° 0 mm 1 m/s 755 mmHg 49%
    04:00 +16°C° 0 mm 1 m/s 755 mmHg 50%
    05:00 +15°C° 0 mm 1 m/s 756 mmHg 52%
    06:00 +15°C° 0 mm 1 m/s 756 mmHg 53%
    07:00 +16°C° 0 mm 2 m/s 756 mmHg 50%
    08:00 +17°C° 0 mm 2 m/s 757 mmHg 47%
    09:00 +18°C° 0 mm 2 m/s 758 mmHg 44%
    10:00 +20°C° 0 mm 2 m/s 758 mmHg 40%
    11:00 +21°C° 0 mm 2 m/s 757 mmHg 37%
    12:00 +24°C° 0 mm 2 m/s 757 mmHg 33%
    13:00 +25°C° 0 mm 2 m/s 756 mmHg 31%
    14:00 +25°C° 0 mm 2 m/s 756 mmHg 28%
    15:00 +26°C° 0 mm 3 m/s 755 mmHg 26%
    16:00 +25°C° 0 mm 2 m/s 755 mmHg 27%
    17:00 +24°C° 0 mm 2 m/s 755 mmHg 29%
    18:00 +23°C° 0 mm 2 m/s 755 mmHg 30%
    19:00 +21°C° 0 mm 2 m/s 756 mmHg 32%
    20:00 +20°C° 0 mm 2 m/s 756 mmHg 34%
    21:00 +19°C° 0 mm 2 m/s 757 mmHg 36%
    22:00 +19°C° 0 mm 2 m/s 757 mmHg 39%
    23:00 +18°C° 0 mm 2 m/s 757 mmHg 41%
    Mostrar mais